| time (UTC) | temp F | wind direction | speed knots | gust knots | rain 1hr in | rain 24hr in | rain mn in | humidity % | barometer mb |
| 20260901011539 | 76 | 335 | 3.5 | 7.0 | 0.00 | 0.00 | 0.00 | 24 | 1006.4 |
| 20260901010040 | 77 | 16 | 3.5 | 12.2 | 0.00 | 0.00 | 0.00 | 24 | 1006.6 |
| 20260901004533 | 77 | 19 | 5.2 | 9.6 | 0.00 | 0.00 | 0.00 | 24 | 1006.6 |
| 20260901003032 | 77 | 51 | 3.5 | 13.0 | 0.00 | 0.00 | 0.00 | 24 | 1006.9 |
| 20260901001532 | 78 | 34 | 6.1 | 9.6 | 0.00 | 0.00 | 0.00 | 24 | 1007.0 |
| 20260901000035 | 78 | 43 | 7.0 | 12.2 | 0.00 | 0.00 | 0.00 | 24 | 1007.2 |
| 20260831234528 | 78 | 64 | 7.0 | 12.2 | 0.00 | 0.00 | 0.00 | 24 | 1007.3 |
| 20260831233027 | 78 | 40 | 7.0 | 11.3 | 0.00 | 0.00 | 0.00 | 24 | 1007.5 |
| 20260831231525 | 78 | 52 | 7.0 | 12.2 | 0.00 | 0.00 | 0.00 | 25 | 1007.7 |
| 20260831230023 | 78 | 315 | 6.1 | 12.2 | 0.00 | 0.00 | 0.00 | 26 | 1007.8 |
| 20260831224522 | 78 | 359 | 5.2 | 9.6 | 0.00 | 0.00 | 0.00 | 25 | 1008.0 |
| 20260831223025 | 78 | 34 | 6.1 | 10.4 | 0.00 | 0.00 | 0.00 | 25 | 1008.3 |
| 20260831221521 | 78 | 72 | 7.0 | 14.8 | 0.00 | 0.00 | 0.00 | 26 | 1008.4 |
| 20260831220016 | 77 | 13 | 7.0 | 12.2 | 0.00 | 0.00 | 0.00 | 26 | 1008.8 |
| 20260831214513 | 78 | 54 | 5.2 | 12.2 | 0.00 | 0.00 | 0.00 | 26 | 1009.0 |
| 20260831213011 | 77 | 30 | 6.1 | 13.0 | 0.00 | 0.00 | 0.00 | 27 | 1009.1 |
| 20260831211509 | 77 | 334 | 4.3 | 12.2 | 0.00 | 0.00 | 0.00 | 26 | 1009.2 |
| 20260831210015 | 77 | 324 | 5.2 | 10.4 | 0.00 | 0.00 | 0.00 | 25 | 1009.4 |
| 20260831204504 | 76 | 44 | 5.2 | 13.0 | 0.00 | 0.00 | 0.00 | 24 | 1009.7 |
| 20260831203002 | 76 | 64 | 8.7 | 13.0 | 0.00 | 0.00 | 0.00 | 26 | 1009.7 |
| 20260831201612 | 76 | 23 | 6.1 | 11.3 | 0.00 | 0.00 | 0.00 | 25 | 1010.0 |
| 20260831200057 | 76 | 28 | 5.2 | 10.4 | 0.00 | 0.00 | 0.00 | 26 | 1010.3 |
| 20260831194553 | 75 | 49 | 5.2 | 10.4 | 0.00 | 0.00 | 0.00 | 26 | 1010.4 |
| 20260831193123 | 74 | 41 | 7.0 | 13.0 | 0.00 | 0.00 | 0.00 | 26 | 1010.6 |
| 20260831191551 | 74 | 41 | 5.2 | 10.4 | 0.00 | 0.00 | 0.00 | 27 | 1010.8 |
| 20260831190049 | 73 | 305 | 5.2 | 9.6 | 0.00 | 0.00 | 0.00 | 28 | 1011.1 |
| 20260831184542 | 73 | 47 | 4.3 | 11.3 | 0.00 | 0.00 | 0.00 | 28 | 1011.3 |
| 20260831183050 | 73 | 52 | 4.3 | 9.6 | 0.00 | 0.00 | 0.00 | 28 | 1011.5 |
| 20260831181549 | 72 | 6 | 4.3 | 8.7 | 0.00 | 0.00 | 0.00 | 29 | 1011.7 |
| 20260831180038 | 71 | 23 | 5.2 | 9.6 | 0.00 | 0.00 | 0.00 | 31 | 1011.9 |
| 20260831174531 | 70 | 8 | 3.5 | 10.4 | 0.00 | 0.00 | 0.00 | 32 | 1012.1 |
| 20260831173028 | 69 | 35 | 3.5 | 8.7 | 0.00 | 0.00 | 0.00 | 32 | 1012.3 |
| 20260831171527 | 69 | 325 | 5.2 | 9.6 | 0.00 | 0.00 | 0.00 | 32 | 1012.3 |
| 20260831170025 | 68 | 38 | 3.5 | 10.4 | 0.00 | 0.00 | 0.00 | 32 | 1012.3 |
| 20260831164524 | 68 | 357 | 3.5 | 8.7 | 0.00 | 0.00 | 0.00 | 32 | 1012.4 |
| 20260831163026 | 68 | 311 | 2.6 | 7.8 | 0.00 | 0.00 | 0.00 | 32 | 1012.4 |
| 20260831161534 | 68 | 23 | 4.3 | 8.7 | 0.00 | 0.00 | 0.00 | 32 | 1012.7 |
| 20260831160020 | 68 | 65 | 5.2 | 9.6 | 0.00 | 0.00 | 0.00 | 33 | 1012.8 |
| 20260831154516 | 67 | 7 | 2.6 | 7.0 | 0.00 | 0.00 | 0.00 | 34 | 1012.8 |
| 20260831153012 | 66 | 50 | 3.5 | 7.0 | 0.00 | 0.00 | 0.00 | 36 | 1012.8 |
| 20260831151508 | 65 | 10 | 3.5 | 7.0 | 0.00 | 0.00 | 0.00 | 37 | 1012.8 |
| 20260831150006 | 65 | 34 | 3.5 | 5.2 | 0.00 | 0.00 | 0.00 | 37 | 1012.9 |
| 20260831144502 | 63 | 43 | 3.5 | 5.2 | 0.00 | 0.00 | 0.00 | 39 | 1012.8 |
| 20260831143059 | 62 | 55 | 3.5 | 5.2 | 0.00 | 0.00 | 0.00 | 42 | 1012.7 |
| 20260831141554 | 60 | 50 | 2.6 | 4.3 | 0.00 | 0.00 | 0.00 | 44 | 1012.6 |
| 20260831140053 | 0 | 0.0 | 0.0 | 0.00 | 0.00 | 0.00 | 1012.5 | ||
| 20260831134557 | 0 | 0.0 | 0.0 | 0.00 | 0.00 | 0.00 | 1012.4 | ||
| 20260831133042 | 0 | 0.0 | 0.0 | 0.00 | 0.00 | 0.00 | 1012.5 | ||
| 20260831131553 | 0 | 0.0 | 0.0 | 0.00 | 0.00 | 0.00 | 1012.6 | ||
| 20260831130041 | 0 | 0.0 | 0.0 | 0.00 | 0.00 | 0.00 | 1012.7 | ||
| 20260831124536 | 0 | 0.0 | 0.0 | 0.00 | 0.00 | 0.00 | 1012.8 | ||
| 20260831123026 | 0 | 0.0 | 0.0 | 0.00 | 0.00 | 0.00 | 1012.8 | ||
| 20260831121526 | 0 | 0.0 | 0.0 | 0.00 | 0.00 | 0.00 | 1012.9 | ||
| 20260831120018 | 60 | 57 | 4.3 | 6.1 | 0.00 | 0.00 | 0.00 | 43 | 1013.0 |
| 20260831114516 | 59 | 72 | 4.3 | 5.2 | 0.00 | 0.00 | 0.00 | 42 | 1013.0 |
| 20260831113016 | 58 | 45 | 1.7 | 3.5 | 0.00 | 0.00 | 0.00 | 44 | 1013.1 |
| 20260831111513 | 56 | 42 | 0.9 | 2.6 | 0.00 | 0.00 | 0.00 | 45 | 1013.1 |
| 20260831110014 | 58 | 62 | 0.9 | 2.6 | 0.00 | 0.00 | 0.00 | 41 | 1013.3 |
| 20260831104523 | 60 | 50 | 1.7 | 5.2 | 0.00 | 0.00 | 0.00 | 40 | 1013.3 |
| 20260831103015 | 58 | 38 | 4.3 | 6.1 | 0.00 | 0.00 | 0.00 | 42 | 1013.2 |
| 20260831101507 | 55 | 46 | 3.5 | 5.2 | 0.00 | 0.00 | 0.00 | 45 | 1013.3 |
| 20260831100005 | 54 | 68 | 2.6 | 4.3 | 0.00 | 0.00 | 0.00 | 47 | 1013.4 |
| 20260831094508 | 53 | 57 | 2.6 | 4.3 | 0.00 | 0.00 | 0.00 | 48 | 1013.6 |
| 20260831093005 | 54 | 69 | 1.7 | 4.3 | 0.00 | 0.00 | 0.00 | 46 | 1013.9 |
| 20260831091558 | 53 | 76 | 1.7 | 2.6 | 0.00 | 0.00 | 0.00 | 50 | 1014.1 |
| 20260831090116 | 52 | 73 | 1.7 | 2.6 | 0.00 | 0.00 | 0.00 | 51 | 1014.2 |
| 20260831084555 | 53 | 56 | 1.7 | 2.6 | 0.00 | 0.00 | 0.00 | 50 | 1014.3 |
| 20260831083107 | 52 | 59 | 1.7 | 2.6 | 0.00 | 0.00 | 0.00 | 51 | 1014.3 |
| 20260831081600 | 53 | 64 | 2.6 | 2.6 | 0.00 | 0.00 | 0.00 | 51 | 1014.4 |
| 20260831080124 | 53 | 65 | 1.7 | 2.6 | 0.00 | 0.00 | 0.00 | 51 | 1014.6 |
| 20260831074550 | 53 | 50 | 0.9 | 2.6 | 0.00 | 0.00 | 0.00 | 50 | 1014.6 |
| 20260831073050 | 53 | 50 | 0.0 | 2.6 | 0.00 | 0.00 | 0.00 | 49 | 1014.6 |
| 20260831071548 | 53 | 52 | 0.9 | 2.6 | 0.00 | 0.00 | 0.00 | 50 | 1014.8 |
| 20260831070044 | 52 | 77 | 2.6 | 3.5 | 0.00 | 0.00 | 0.00 | 49 | 1014.8 |
| 20260831064544 | 54 | 73 | 2.6 | 3.5 | 0.00 | 0.00 | 0.00 | 47 | 1014.8 |
| 20260831063046 | 54 | 76 | 2.6 | 2.6 | 0.00 | 0.00 | 0.00 | 46 | 1014.8 |
| 20260831061543 | 55 | 69 | 1.7 | 2.6 | 0.00 | 0.00 | 0.00 | 46 | 1014.9 |
| 20260831060044 | 55 | 11 | 0.0 | 2.6 | 0.00 | 0.00 | 0.00 | 46 | 1015.0 |
| 20260831054541 | 54 | 264 | 0.0 | 0.9 | 0.00 | 0.00 | 0.00 | 46 | 1015.0 |
| 20260831053111 | 55 | 352 | 0.0 | 0.9 | 0.00 | 0.00 | 0.00 | 44 | 1015.0 |
| 20260831051540 | 54 | 326 | 0.0 | 1.7 | 0.00 | 0.00 | 0.00 | 43 | 1015.1 |
| 20260831050039 | 54 | 54 | 0.0 | 1.7 | 0.00 | 0.00 | 0.00 | 40 | 1015.2 |
| 20260831044631 | 54 | 30 | 0.0 | 1.7 | 0.00 | 0.00 | 0.00 | 35 | 1015.2 |
| 20260831043040 | 54 | 72 | 1.7 | 2.6 | 0.00 | 0.00 | 0.00 | 33 | 1015.3 |
| 20260831041539 | 56 | 86 | 2.6 | 3.5 | 0.00 | 0.00 | 0.00 | 31 | 1015.3 |
| 20260831040036 | 57 | 85 | 1.7 | 3.5 | 0.00 | 0.00 | 0.00 | 30 | 1015.4 |
| 20260831034535 | 56 | 86 | 2.6 | 3.5 | 0.00 | 0.00 | 0.00 | 30 | 1015.3 |
| 20260831033051 | 57 | 107 | 0.0 | 1.7 | 0.00 | 0.00 | 0.00 | 28 | 1015.2 |
| 20260831031537 | 57 | 83 | 0.0 | 1.7 | 0.00 | 0.00 | 0.00 | 28 | 1015.0 |
| 20260831030033 | 59 | 91 | 0.9 | 3.5 | 0.00 | 0.00 | 0.00 | 27 | 1014.9 |
| 20260831024533 | 61 | 87 | 0.0 | 2.6 | 0.00 | 0.00 | 0.00 | 26 | 1014.8 |
| 20260831023032 | 66 | 19 | 0.0 | 1.7 | 0.00 | 0.00 | 0.00 | 23 | 1014.7 |
| 20260831021532 | 68 | 344 | 0.9 | 2.6 | 0.00 | 0.00 | 0.00 | 21 | 1014.7 |
| 20260831020031 | 69 | 308 | 0.9 | 3.5 | 0.00 | 0.00 | 0.00 | 22 | 1014.7 |
| 20260831014529 | 70 | 324 | 1.7 | 3.5 | 0.00 | 0.00 | 0.00 | 23 | 1014.7 |
| 20260831013029 | 71 | 23 | 1.7 | 4.3 | 0.00 | 0.00 | 0.00 | 23 | 1014.7 |